Location: Shepherdstown, WV
(39.4326°N, 77.8042°W)
Time: 06:29:06
(UTC-04:00)

SR - Pass Details

Date: 08 August 2021
Orbit: 581 x 874 km, 66.7° (Epoch: 24 September)

Event Time Altitude Azimuth Distance (km) Brightness Sun altitude
Rises 12:40:08 0° 347° (NNW) 3,090 ? 65.2°
Reaches altitude 10° 12:44:25 10° 22° (NNE) 2,086 ? 65.5°
Maximum altitude 12:45:48 11° 40° (NE) 1,982 ? 65.5°
Drops below altitude 10° 12:47:10 10° 57° (ENE) 2,034 ? 65.6°
Sets 12:51:08 0° 93° (E) 2,874 ? 65.8°
